Location: Rancho Del Sol Observatory
(38.7214°N, 120.6350°W)
Time: 17:57:55
(UTC-08:00)

A-11 Canister half - Pass Details

Date: 24 January 2020
Orbit: 1517 x 1683 km, 47.2° (Epoch: 21 February)

Event Time Altitude Azimuth Distance (km) Brightness Sun altitude
Exits shadow 03:19:00 42° 46° (NE) 2,054 9.7 -45.8°
Drops below altitude 10° 03:25:29 10° 80° (E) 3,694 11.6 -44.6°
Sets 03:28:41 0° 85° (E) 4,689 12.3 -43.9°
